Wind_Speed
24 24 24 25 25 25 22 20 20 21 21 21 20 20 20 20 19 19 18 18 17 16 16 16 16 15 15 15 14 14 14 14 14 14 14 13 13 13 12 12 12 11 11 11 10 9 9 8 8
26 26 26 27 28 26 22 21 22 22 22 22 22 22 22 21 21 20 20 19 18 18 17 17 17 17 17 16 16 16 16 16 15 15 16 15 15 14 14 13 13 13 12 12 12 11 10 10 9
27 28 28 29 29 27 23 23 24 24 24 23 23 23 23 22 21 21 21 20 19 19 19 18 18 18 18 17 17 17 17 17 17 17 17 17 16 16 15 14 14 14 14 14 13 13 12 12 11
29 30 31 31 30 27 25 26 26 26 25 25 25 24 24 23 23 23 22 21 21 21 20 20 19 19 19 19 18 18 18 18 18 18 18 18 18 17 17 16 16 16 15 15 15 14 14 13 13
31 32 33 32 30 28 27 27 28 28 27 27 26 25 25 24 24 25 24 23 23 22 22 21 21 21 20 20 20 19 19 19 19 19 18 18 18 19 18 18 18 17 17 16 16 16 15 15 14
34 34 34 33 31 29 29 29 29 29 28 28 28 27 26 25 25 25 25 25 25 24 24 24 23 23 23 22 21 21 20 20 20 20 20 20 19 18 18 18 19 18 17 17 17 17 16 16 15
36 36 35 34 33 31 30 31 31 30 30 30 30 29 27 27 26 27 26 26 27 26 26 25 25 24 24 24 23 22 22 21 21 21 21 21 20 20 19 19 19 19 18 18 18 17 16 16 16
37 38 38 36 35 33 32 34 33 33 32 32 32 31 29 29 28 28 28 28 28 28 28 27 27 26 25 25 24 24 23 23 22 22 22 22 21 21 20 20 20 20 19 19 19 19 18 17 17
38 40 39 37 37 36 35 36 36 36 36 35 34 33 32 31 31 30 30 29 29 29 29 28 28 28 27 26 26 25 25 25 24 24 24 23 23 22 22 22 21 21 20 20 20 19 19 19 19
39 40 38 37 38 37 37 37 37 37 37 36 36 35 34 33 33 32 32 31 31 30 30 30 30 29 28 27 27 27 26 26 26 26 25 25 25 24 23 23 22 22 21 21 21 20 20 20 20
38 38 36 37 38 38 38 38 38 38 37 36 37 37 36 35 34 34 34 33 33 32 32 31 31 30 30 29 29 29 28 28 28 28 27 26 26 26 25 25 24 24 23 23 23 22 22 21 22
37 37 37 36 38 39 39 39 39 39 38 38 38 38 38 37 36 36 35 35 35 34 34 33 32 31 31 31 31 30 30 29 29 29 28 27 27 28 27 27 26 25 25 25 24 24 24 24 24
36 36 37 37 37 38 39 40 40 39 39 40 40 39 39 39 38 38 37 37 36 36 35 35 34 33 33 33 33 32 32 31 31 30 29 29 28 28 29 28 28 27 27 26 26 25 25 25 25
36 36 37 38 38 39 39 40 41 39 40 41 41 40 40 40 39 39 38 38 38 37 37 37 36 35 35 35 34 34 33 33 33 32 31 30 30 30 30 29 29 29 29 28 27 27 27 27 27
37 38 38 38 39 39 40 40 39 40 41 42 42 42 41 41 40 40 40 39 39 39 39 39 38 38 38 37 37 36 35 35 34 33 33 32 32 32 31 31 31 31 30 29 28 28 28 28 29
38 39 39 38 39 39 41 40 38 40 41 42 43 43 43 42 41 41 41 40 40 40 41 41 40 40 39 39 38 38 37 36 35 35 34 34 34 33 33 32 32 32 31 30 30 29 30 30 30
38 39 39 38 38 39 40 40 39 41 41 42 43 44 44 43 42 42 42 42 42 42 42 42 42 42 41 41 40 39 39 39 38 37 36 36 36 35 34 34 34 33 33 32 32 32 32 32 32
38 39 39 39 39 40 41 40 39 40 41 42 43 44 45 44 44 44 43 44 44 44 43 43 43 43 43 43 43 42 41 41 40 39 39 38 38 37 37 36 36 35 34 34 34 33 33 33 32
39 39 39 39 40 40 40 41 40 40 41 41 42 43 44 45 46 46 45 45 44 44 44 44 44 44 45 45 45 44 44 43 42 40 41 40 40 40 39 38 37 37 37 36 35 35 34 35 35
40 40 40 40 40 42 42 41 40 41 40 40 41 42 43 44 45 46 46 46 45 45 45 46 46 45 46 45 46 46 46 45 45 44 43 42 42 41 41 40 39 39 38 37 37 36 36 36 36
40 40 40 40 40 41 43 42 40 40 40 40 40 41 42 43 45 46 46 46 46 46 46 46 47 47 47 46 47 47 48 47 47 46 44 43 43 44 43 43 42 40 39 38 38 38 38 38 38
40 39 40 41 41 41 42 43 39 39 39 39 40 40 41 41 43 45 46 46 46 47 48 48 48 48 48 48 48 48 49 48 48 47 47 46 45 44 45 43 43 43 42 42 41 40 40 39 39
38 38 39 39 40 41 41 43 40 39 39 38 39 39 40 41 42 43 45 46 46 47 47 48 49 49 49 49 49 50 50 50 49 49 49 48 47 46 46 45 45 45 45 44 43 43 42 42 41
36 37 38 39 40 41 39 41 40 38 37 37 37 38 38 39 40 42 43 44 45 46 47 48 48 49 50 50 51 51 51 51 51 51 50 50 49 49 48 47 47 47 47 46 46 45 44 44 44
36 36 37 38 40 41 39 40 40 37 36 36 36 37 38 38 39 40 42 42 44 45 46 47 47 48 49 50 50 51 52 52 52 51 51 51 50 50 50 49 48 48 48 48 47 47 46 46 45
36 36 37 39 40 40 40 40 39 38 38 37 37 37 38 38 39 40 41 42 43 44 46 46 46 47 48 49 50 51 51 52 51 51 51 51 52 51 51 51 50 50 49 49 48 47 47 48 47
36 36 36 37 39 40 40 39 38 38 38 38 38 38 38 38 39 40 41 41 42 43 45 46 46 46 48 49 50 50 51 51 51 51 51 52 52 52 51 52 52 52 51 50 50 49 48 49 49
35 35 35 36 37 39 41 39 37 36 36 37 37 38 38 38 38 39 40 41 41 42 44 45 46 47 47 49 49 50 51 52 52 53 53 53 53 52 52 52 53 53 52 52 52 52 52 51 51
33 34 36 36 37 38 39 39 37 37 36 36 36 37 37 37 38 38 39 40 41 41 42 44 45 46 47 48 49 49 50 51 52 52 53 54 54 53 53 53 53 54 54 54 53 54 54 54 53
33 34 35 36 36 37 38 38 36 37 36 36 37 37 38 38 38 38 39 39 40 41 41 43 44 46 47 48 49 49 49 50 51 52 53 54 54 54 54 55 55 55 55 54 54 54 55 55 55
Wind_Direction
249 249 250 250 250 252 254 254 255 255 254 255 253 251 250 249 250 250 251 253 253 252 249 248 247 245 245 244 245 242 242 243 244 245 247 249 251 252 252 249 246 246 244 244 245 243 242 241 243
249 249 250 251 251 253 253 252 253 253 252 252 252 251 250 249 250 251 251 252 252 251 249 247 246 246 245 246 246 246 244 243 244 247 249 250 252 251 250 249 248 248 246 246 248 248 248 245 242
250 249 250 252 253 253 253 250 250 251 250 250 250 251 250 250 249 250 251 251 250 249 248 247 247 247 247 248 248 248 245 245 245 247 249 251 251 251 252 252 251 250 249 249 249 249 247 244 243
252 251 251 252 254 254 252 250 249 249 249 249 249 250 250 250 249 249 249 249 248 247 247 247 247 248 248 248 248 247 246 246 247 247 248 250 249 249 251 252 253 253 252 251 250 250 247 245 245
253 253 253 253 255 254 252 250 249 249 249 249 249 249 249 249 249 249 248 248 247 246 246 247 247 247 248 249 248 249 248 247 247 248 249 250 250 248 250 253 252 253 254 252 250 250 248 246 246
254 254 254 255 255 253 251 250 248 248 248 249 249 249 248 248 248 248 248 248 247 246 246 247 248 249 249 249 248 249 249 248 247 247 248 249 248 249 251 253 251 252 254 253 250 248 247 248 249
255 254 254 255 254 252 250 250 249 247 246 247 248 248 247 247 246 247 248 248 248 246 246 247 249 250 251 250 248 249 249 247 247 247 248 249 248 250 251 252 251 251 252 252 249 248 248 248 250
257 255 254 254 254 253 250 249 248 247 246 247 246 246 246 246 246 246 247 248 248 247 246 247 249 249 249 249 249 248 247 246 247 247 247 248 249 250 251 252 253 253 252 251 249 248 249 250 250
257 256 255 254 253 252 250 249 248 247 246 246 246 246 246 246 246 246 246 247 247 247 247 247 248 248 248 249 248 246 246 246 247 247 247 248 249 250 250 251 253 254 253 252 251 250 251 252 252
257 257 256 254 252 251 249 248 248 247 246 246 246 246 245 245 246 246 246 247 247 247 246 246 247 247 248 249 248 247 247 247 247 247 246 247 249 250 250 251 252 253 254 254 253 253 253 254 254
260 258 256 253 251 249 248 248 247 246 245 245 245 245 245 245 245 246 246 247 247 247 247 246 247 248 248 248 248 248 248 248 248 247 247 248 249 250 251 251 252 252 253 254 256 255 255 256 256
260 258 255 253 251 250 249 248 248 247 246 245 244 245 245 245 245 246 246 247 247 247 247 247 247 248 247 247 248 248 248 248 248 247 246 247 249 249 250 251 251 252 254 255 256 256 256 256 256
260 258 256 253 251 251 250 248 247 246 246 245 245 245 245 245 245 245 245 245 246 247 247 247 246 248 248 249 249 247 246 246 247 247 246 247 247 249 249 250 251 253 254 255 256 257 257 256 256
259 258 256 253 251 250 251 249 247 246 246 245 245 245 245 244 244 244 245 245 245 245 246 246 245 246 248 248 248 248 246 245 246 247 246 247 248 249 250 250 252 253 255 256 257 257 258 257 258
257 257 256 255 255 253 253 250 249 248 247 246 246 245 245 245 244 244 245 245 245 244 244 245 246 247 247 247 247 247 247 246 246 247 246 247 249 250 250 251 252 254 255 255 257 257 258 258 259
258 257 257 256 257 255 255 253 252 250 249 247 247 245 245 246 245 244 244 244 244 244 244 245 246 245 246 246 246 246 247 246 247 247 247 248 249 250 250 251 252 254 255 256 257 258 259 260 260
258 259 259 257 257 256 256 255 252 252 250 249 248 246 245 245 245 245 245 244 244 244 244 245 245 245 246 247 247 246 247 246 247 248 249 249 249 250 251 252 253 254 255 256 258 259 260 261 261
261 261 261 259 257 257 256 255 254 253 251 250 248 248 246 245 245 245 245 245 244 244 244 245 245 246 245 246 247 245 246 245 246 248 249 249 250 251 253 254 254 255 256 257 258 260 259 260 262
261 262 261 259 257 256 255 253 253 252 251 250 250 249 248 246 245 245 245 245 245 245 245 245 245 246 246 246 247 246 246 246 246 247 248 250 251 252 253 254 255 256 256 257 259 260 260 260 261
260 260 259 258 258 257 256 254 252 252 251 251 250 249 248 247 246 245 246 246 246 246 245 245 245 245 245 246 247 246 246 247 247 248 249 249 251 252 253 254 255 256 256 257 258 260 260 261 261
260 260 259 259 259 258 258 255 253 252 251 251 250 250 249 248 247 246 246 246 246 246 246 245 245 245 245 246 246 246 247 247 247 249 249 250 251 252 253 254 255 256 256 258 259 260 260 261 261
260 260 259 259 260 259 258 257 252 251 250 250 251 250 250 249 249 247 246 246 246 246 246 246 246 245 246 246 246 246 247 247 247 249 249 249 250 251 252 253 255 256 256 258 260 260 261 261 261
259 259 258 259 259 259 257 257 253 250 250 251 252 251 250 250 249 248 247 246 246 247 246 246 246 246 246 247 247 246 247 247 248 249 249 250 249 250 252 254 255 256 257 257 259 260 261 261 262
259 259 258 257 258 257 256 258 255 252 252 251 251 252 251 250 250 249 248 248 247 247 247 246 246 246 246 246 246 247 248 248 248 249 250 250 249 251 253 254 255 255 255 257 258 259 260 261 262
257 257 257 257 256 258 257 258 257 254 253 252 252 251 252 251 251 250 250 250 249 249 248 247 247 246 246 247 247 248 248 249 249 250 250 250 251 252 253 254 254 255 256 256 258 258 258 260 262
256 256 258 260 260 259 259 259 258 257 255 254 253 253 252 252 252 252 251 251 250 249 249 248 248 246 246 247 247 248 248 249 249 249 250 251 252 253 253 254 255 255 257 256 257 258 259 260 262
256 255 257 260 261 260 260 260 259 258 257 256 254 253 253 253 253 253 252 251 251 249 249 248 247 247 246 246 247 248 248 249 249 249 250 251 253 253 253 253 254 256 257 258 257 258 260 261 262
257 256 257 257 260 261 260 259 259 258 257 256 255 254 254 254 254 254 254 253 251 249 248 248 247 246 246 247 247 248 248 249 250 250 250 251 253 253 254 254 255 256 258 259 259 259 260 261 262
256 254 254 256 259 261 261 259 259 259 259 258 257 256 255 255 254 253 253 253 251 250 249 248 248 247 247 247 247 248 249 250 251 251 252 253 253 253 254 255 256 258 259 259 260 261 261 262 262
260 256 254 255 257 259 260 260 259 260 260 259 258 258 257 257 256 254 253 253 252 251 250 249 249 248 248 248 248 249 249 250 251 251 252 254 254 255 256 257 257 258 259 260 261 261 262 262 263
Height
5815 5816 5818 5819 5820 5820 5822 5824 5824 5824 5824 5825 5826 5827 5828 5829 5831 5834 5833 5832 5833 5834 5835 5835 5836 5837 5838 5838 5839 5840 5840 5841 5842 5843 5844 5844 5845 5845 5846 5846 5847 5847 5847 5847 5847 5847 5848 5848 5848
5810 5812 5813 5813 5814 5815 5818 5819 5819 5819 5820 5820 5821 5822 5823 5825 5826 5828 5828 5829 5830 5830 5831 5832 5833 5834 5835 5835 5836 5837 5838 5838 5839 5840 5841 5842 5842 5843 5844 5844 5844 5845 5845 5845 5846 5846 5846 5846 5846
5805 5806 5808 5808 5808 5811 5814 5815 5815 5815 5815 5816 5817 5818 5819 5820 5822 5823 5824 5825 5826 5827 5828 5829 5830 5830 5831 5832 5833 5834 5835 5835 5836 5837 5838 5839 5840 5840 5841 5841 5842 5842 5843 5843 5844 5844 5844 5844 5845
5800 5800 5801 5802 5803 5806 5808 5809 5809 5809 5810 5811 5812 5813 5815 5816 5817 5819 5820 5821 5822 5823 5824 5825 5826 5827 5828 5829 5830 5831 5832 5832 5833 5834 5835 5836 5837 5837 5838 5839 5839 5840 5840 5841 5841 5842 5842 5842 5842
5793 5794 5794 5795 5798 5801 5802 5803 5803 5804 5805 5806 5807 5808 5810 5811 5812 5813 5815 5816 5817 5818 5820 5821 5822 5823 5824 5825 5826 5827 5828 5829 5830 5831 5832 5832 5834 5834 5835 5835 5836 5837 5837 5838 5838 5839 5839 5840 5840
5786 5787 5788 5789 5792 5794 5795 5796 5797 5798 5799 5800 5801 5803 5804 5806 5807 5808 5810 5811 5813 5814 5815 5816 5818 5819 5820 5821 5822 5823 5824 5825 5826 5827 5828 5829 5830 5831 5832 5832 5833 5833 5834 5834 5835 5835 5836 5837 5837
5779 5779 5780 5782 5784 5786 5788 5789 5790 5792 5793 5794 5795 5797 5799 5800 5801 5803 5804 5806 5807 5809 5810 5811 5813 5814 5815 5816 5817 5819 5820 5821 5822 5823 5824 5825 5826 5827 5828 5829 5829 5830 5830 5831 5831 5832 5833 5833 5834
5770 5771 5772 5774 5776 5779 5781 5781 5782 5784 5786 5787 5788 5790 5793 5794 5795 5797 5798 5800 5802 5803 5805 5806 5807 5809 5810 5811 5813 5814 5815 5816 5817 5819 5820 5821 5822 5823 5824 5825 5825 5826 5826 5827 5828 5829 5829 5830 5830
5760 5762 5763 5766 5768 5770 5771 5772 5774 5776 5778 5779 5781 5784 5786 5788 5789 5791 5792 5794 5795 5797 5799 5800 5802 5803 5805 5806 5807 5809 5810 5812 5813 5814 5815 5816 5817 5818 5819 5820 5821 5822 5822 5823 5824 5825 5825 5826 5826
5751 5752 5756 5758 5759 5760 5762 5763 5765 5767 5769 5771 5773 5776 5778 5780 5782 5784 5786 5787 5789 5791 5793 5794 5796 5797 5799 5800 5802 5803 5805 5806 5808 5809 5810 5811 5812 5814 5815 5816 5817 5817 5818 5819 5820 5820 5821 5822 5822
5742 5744 5747 5748 5749 5750 5752 5754 5756 5758 5761 5764 5765 5767 5769 5772 5774 5777 5779 5780 5782 5784 5786 5788 5790 5791 5793 5795 5796 5798 5799 5801 5802 5803 5805 5806 5807 5808 5810 5811 5812 5813 5813 5814 5815 5816 5816 5817 5818
5733 5735 5737 5738 5739 5741 5743 5745 5747 5749 5753 5755 5756 5758 5761 5764 5766 5768 5771 5773 5775 5777 5779 5781 5783 5784 5786 5788 5789 5791 5793 5794 5796 5797 5799 5800 5802 5803 5804 5805 5806 5807 5808 5809 5810 5810 5811 5812 5812
5725 5726 5728 5729 5730 5731 5733 5735 5737 5740 5743 5745 5747 5749 5752 5755 5757 5760 5762 5765 5767 5769 5771 5773 5775 5777 5779 5781 5783 5784 5786 5788 5789 5791 5793 5794 5796 5797 5798 5799 5800 5801 5802 5803 5804 5805 5805 5806 5807
5716 5717 5718 5719 5720 5722 5723 5725 5727 5731 5733 5735 5737 5740 5742 5745 5748 5751 5753 5756 5759 5761 5763 5765 5767 5769 5771 5773 5775 5777 5779 5781 5783 5784 5786 5788 5789 5791 5792 5793 5794 5795 5796 5797 5798 5799 5799 5800 5801
5706 5707 5709 5710 5711 5712 5713 5715 5718 5721 5722 5725 5728 5730 5733 5735 5738 5741 5744 5747 5749 5752 5754 5757 5759 5761 5763 5765 5767 5769 5771 5773 5775 5777 5779 5781 5782 5784 5785 5786 5788 5789 5789 5790 5791 5792 5793 5794 5794
5696 5697 5699 5702 5702 5703 5704 5706 5710 5710 5712 5715 5717 5720 5723 5726 5728 5731 5734 5737 5740 5742 5745 5747 5750 5752 5754 5756 5758 5761 5763 5765 5767 5769 5771 5773 5775 5776 5777 5779 5780 5781 5782 5783 5784 5785 5786 5786 5787
5686 5687 5689 5692 5692 5693 5694 5696 5700 5700 5701 5704 5707 5709 5712 5715 5718 5721 5724 5726 5729 5732 5735 5738 5740 5742 5744 5747 5749 5752 5754 5757 5759 5761 5763 5765 5767 5768 5769 5771 5772 5774 5775 5776 5777 5778 5778 5779 5779
5677 5678 5679 5681 5682 5682 5683 5686 5688 5689 5690 5693 5696 5698 5701 5704 5707 5710 5713 5716 5718 5721 5724 5727 5730 5732 5734 5737 5739 5742 5744 5747 5749 5752 5754 5756 5758 5760 5761 5763 5764 5765 5767 5768 5769 5769 5770 5771 5771
5666 5667 5668 5670 5670 5671 5672 5674 5676 5678 5679 5682 5684 5687 5690 5693 5696 5699 5701 5704 5707 5710 5713 5716 5719 5722 5724 5727 5729 5732 5734 5737 5740 5743 5745 5747 5749 5751 5753 5754 5755 5757 5758 5759 5760 5761 5762 5762 5763
5655 5655 5657 5658 5659 5659 5661 5663 5665 5667 5669 5671 5673 5675 5678 5681 5684 5687 5690 5693 5696 5699 5702 5704 5707 5710 5713 5716 5719 5722 5724 5727 5730 5732 5735 5737 5739 5741 5743 5744 5746 5747 5749 5750 5751 5752 5753 5753 5754
5644 5645 5646 5647 5647 5647 5648 5651 5654 5657 5658 5660 5662 5664 5667 5670 5672 5675 5678 5681 5684 5687 5690 5693 5695 5698 5701 5704 5707 5710 5713 5716 5719 5721 5724 5726 5728 5730 5733 5734 5736 5738 5739 5740 5741 5742 5743 5744 5745
5633 5635 5635 5635 5635 5636 5638 5638 5644 5646 5647 5650 5652 5654 5656 5658 5661 5663 5666 5669 5672 5675 5678 5681 5684 5686 5689 5692 5696 5699 5702 5705 5708 5710 5713 5715 5718 5720 5721 5723 5725 5727 5729 5730 5731 5732 5733 5734 5734
5622 5623 5623 5623 5623 5624 5626 5627 5633 5634 5637 5639 5642 5643 5645 5647 5649 5651 5654 5657 5660 5662 5665 5668 5671 5674 5677 5680 5683 5687 5690 5693 5696 5698 5701 5703 5706 5708 5710 5712 5714 5716 5717 5719 5720 5721 5722 5723 5724
5611 5612 5611 5611 5611 5613 5616 5616 5620 5623 5626 5629 5631 5632 5634 5636 5638 5640 5642 5645 5648 5650 5653 5656 5659 5662 5665 5668 5671 5674 5677 5680 5683 5686 5689 5691 5694 5696 5698 5700 5702 5704 5706 5707 5709 5710 5711 5711 5712
5600 5601 5600 5599 5599 5603 5606 5605 5609 5614 5616 5618 5620 5621 5623 5625 5627 5629 5631 5634 5636 5638 5641 5644 5646 5649 5652 5655 5658 5661 5664 5667 5670 5673 5676 5679 5681 5684 5686 5688 5690 5692 5693 5695 5696 5698 5698 5699 5700
5589 5590 5591 5590 5591 5593 5594 5595 5600 5603 5605 5607 5609 5610 5611 5613 5615 5617 5620 5622 5624 5626 5628 5631 5634 5636 5639 5642 5645 5648 5651 5654 5657 5660 5663 5666 5668 5671 5673 5675 5677 5679 5681 5682 5684 5685 5686 5687 5688
5579 5579 5581 5581 5581 5582 5583 5586 5589 5591 5593 5596 5598 5599 5601 5603 5604 5606 5608 5610 5612 5614 5616 5618 5621 5624 5626 5629 5632 5635 5638 5641 5644 5647 5650 5652 5655 5657 5659 5662 5664 5666 5667 5669 5670 5672 5673 5674 5675
5569 5570 5571 5570 5570 5570 5573 5576 5579 5581 5582 5584 5586 5588 5590 5591 5593 5594 5596 5597 5599 5601 5604 5606 5608 5611 5614 5616 5619 5622 5625 5628 5631 5633 5636 5639 5641 5643 5646 5648 5650 5652 5653 5655 5657 5658 5659 5660 5661
5558 5559 5559 5560 5560 5561 5562 5568 5569 5570 5571 5573 5575 5576 5578 5580 5581 5582 5584 5585 5587 5589 5592 5594 5596 5599 5601 5604 5607 5610 5612 5615 5617 5620 5622 5625 5627 5629 5632 5634 5636 5638 5639 5641 5642 5644 5645 5646 5647
5548 5548 5549 5550 5551 5551 5552 5558 5559 5560 5560 5562 5564 5565 5567 5568 5570 5571 5572 5574 5576 5577 5580 5582 5584 5586 5589 5591 5594 5597 5599 5601 5604 5606 5609 5611 5613 5615 5617 5619 5621 5623 5624 5626 5627 5629 5630 5631 5632